Regional Weather Roundup
Issued by NWS State College, PA

Home | Current Version | Previous Version | Text Only | Print | Product List | Glossary On
Versions: 1 2 3 4 5 6 7 8 9 10 11 12 13 14 15 16 17 18 19 20 21 22 23 24 25 26 27 28 29 30 31 32 33 34 35 36 37 38 39 40 41 42 43 44 45 46 47 48 49 50
000
ASUS41 KCTP 131903
RWRCTP

REGIONAL WEATHER ROUNDUP
NATIONAL WEATHER SERVICE STATE COLLEGE PA
200 PM EST WED DEC 13 2017

Note: "fair" indicates few or no clouds below 12,000 feet with no
significant weather and/or obstructions to visibility.

* = STATION THAT DOES NOT REPORT PRECIPITATION /E.G. RAIN...SNOW...ETC/
    THUNDER OR FOG.

PAZ002>004-007>009-013>016-020>023-029>032-132000-
WESTERN PENNSYLVANIA

CITY           SKY/WX    TMP DP  RH WIND       PRES   REMARKS
ERIE           LGT SNOW  20  14  77 S12       29.67F WCI   8
MEADVILLE      CLOUDY    18  11  74 SW7       29.64F WCI   9
FRANKLIN*      CLOUDY    20   9  62 SW7       29.64F WCI  11
NEW CASTLE     LGT SNOW  23  15  71 VRB6      29.69F
BEAVER COUNTY  LGT SNOW  23  14  68 SW9       29.78R WCI  13
BUTLER*        LGT SNOW  22  13  68 W9        29.68F WCI  12
PITTSBURGH INT FLURRIES  24  12  60 SW12      29.68F WCI  13
PITTSBURGH     CLOUDY    22   9  57 SW9       29.68F WCI  12
INDIANA*       CLOUDY    21  10  63 W10G17    29.70F WCI  10
LATROBE        MOSUNNY   23  10  58 W14       29.71F WCI  11
WASHINGTON CO* CLOUDY    24  13  62 SW12G18   29.73F WCI  13
$$

PAZ004>006-010>012-017>019-024>028-033>037-041-042-045-046-049>053-132000-
CENTRAL PENNSYLVANIA

CITY           SKY/WX    TMP DP  RH WIND       PRES   REMARKS
BRADFORD       LGT SNOW  15   7  70 W8G21     29.57F WCI   4
DUBOIS         CLOUDY    16   7  67 W10       29.62F WCI   4
CLEARFIELD     CLOUDY    19   8  62 W13G21    29.65F WCI   6
JOHNSTOWN      PTSUNNY   17   7  64 W13G22    29.59F WCI   4
ALTOONA        SUNNY     24   6  46 W14G23    29.67F WCI  12
STATE COLLEGE  PTSUNNY   21   7  53 NW14G26   29.67F WCI   8
WILLIAMSPORT   PTSUNNY   28   6  39 NW16      29.67S
SELINSGROVE    MOSUNNY   26   6  42 W13G22    29.71S WCI  15
FT INDIANTOWN  SUNNY     27   3  35 W15G30    29.69S WCI  15
CAPITAL CITY   SUNNY     29   1  30 W15G23    29.72S
HARRISBURG     MOSUNNY   29   7  39 NW17G29   29.72S
YORK           SUNNY     28   4  35 W14G21    29.72S
$$

PAZ038>040-043-044-047-048-054-055-060>062-067>071-132000-
EASTERN PENNSYLVANIA

CITY           SKY/WX    TMP DP  RH WIND       PRES   REMARKS
SCRANTON       PTSUNNY   25   5  42 NW16G22   29.58R WCI  12
MOUNT POCONO   CLOUDY    19   4  51 W23G35    29.49R WCI   2
ALLENTOWN      PTSUNNY   30   7  37 W23G31    29.64R
QUAKERTOWN*    PTCLDY    28   7  40 W18G25    29.65R
READING        MOSUNNY   29   8  41 W23G29    29.67R
LANCASTER      SUNNY     29   5  36 W21G31    29.70R
COATESVILLE    CLEAR     28   5  37 W21G28    29.68F
POTTSTOWN      SUNNY     28   5  37 W18G31    29.68S
BLUE BELL      SUNNY     30   7  37 W16G22    29.68S
DOYLESTOWN     MOSUNNY   28   6  39 W15G26    29.64R
WILLOW GROVE   NOT AVBL
NORTH PHILA    SUNNY     32   6  33 NW14G33   29.68S
PHILADELPHIA   MOSUNNY   31   4  31 W22G31    29.70S
$$




USA.gov is the U.S. government's official web portal to all federal, state and local government web resources and services.